Theta_e
321 321 322 322 322 322 322 322 322 322 322 322 322 322 323 323 323 323 323 324 324 324 325 325 326 326 327 328 327 326 324 323 324 321 318 320 324 331 332 334 335 338 332 323 322 319 320 321 319 320 320 319 318 316 322 323 323 320 315 311 308 309 310 313 313 313 315 316 318 321 321 319 316 321 322 327 322 322 322 321 324 325 325 327 327 330 333 334
321 321 321 322 322 322 322 322 322 322 322 322 322 322 322 322 323 323 323 323 324 324 325 325 326 327 327 327 327 325 323 325 320 319 318 325 329 332 336 337 335 333 331 320 318 317 316 318 320 320 320 319 321 321 325 322 324 318 315 313 309 312 313 318 316 316 317 316 319 321 322 321 318 321 323 318 318 319 318 320 322 321 322 323 324 325 329 332
321 321 321 321 321 321 321 322 322 322 322 321 322 322 322 322 323 323 323 323 323 324 324 326 327 327 327 327 327 322 324 323 322 320 325 330 335 332 336 336 335 332 323 319 320 319 318 320 322 321 323 320 322 320 321 320 321 320 314 311 312 316 316 317 318 316 321 319 318 319 322 321 320 321 324 318 316 317 315 315 317 319 319 321 321 322 323 326
320 321 321 321 321 321 321 321 321 321 321 321 321 322 322 322 322 322 323 323 323 324 324 325 327 328 328 326 323 327 326 322 318 322 329 333 336 333 335 336 337 331 323 321 321 320 322 324 324 324 320 322 319 321 319 320 320 319 317 314 315 317 316 316 319 319 320 322 319 320 321 318 321 321 321 318 314 314 318 320 319 319 319 319 318 318 319 319
320 320 321 321 321 321 321 321 321 321 321 321 321 321 321 321 322 322 322 323 323 324 324 325 327 328 328 328 323 326 325 316 316 325 331 331 341 336 336 339 335 324 322 321 320 322 326 325 324 322 322 318 319 320 318 319 321 320 316 317 317 318 315 318 319 320 321 322 321 320 317 316 322 320 318 318 313 311 317 319 321 323 321 318 316 320 321 320
320 320 320 320 321 321 321 321 321 321 321 321 321 321 321 321 321 321 322 322 323 323 324 325 327 329 328 326 327 326 322 304 320 324 342 340 342 339 337 338 335 323 322 320 320 320 322 324 323 320 319 319 317 317 318 320 323 314 316 317 318 319 316 319 320 320 321 320 318 317 319 320 318 315 318 315 313 316 324 323 323 322 319 317 321 322 321 322
319 319 320 320 320 321 321 321 321 321 321 321 321 321 321 321 321 321 322 323 323 323 324 325 327 328 328 323 329 324 318 318 322 333 342 344 341 338 339 337 336 323 321 319 320 320 321 322 322 318 318 318 318 318 318 319 321 319 314 318 317 319 317 321 319 320 320 319 316 318 320 315 314 311 316 313 315 320 323 324 324 321 319 320 322 322 322 322
319 319 319 319 320 320 320 321 321 320 321 321 321 321 321 321 320 321 321 322 322 323 323 325 327 329 326 328 325 318 317 317 325 338 342 342 338 338 336 325 322 322 320 321 322 321 322 320 319 319 319 317 316 318 319 319 319 315 315 317 318 319 320 320 321 320 320 319 319 318 315 315 317 312 316 311 315 319 322 324 323 320 320 321 322 323 323 322
319 319 319 319 319 319 320 320 320 321 321 321 321 321 320 320 320 320 321 321 322 322 323 325 328 327 319 321 316 311 314 320 329 336 338 335 333 331 326 322 323 321 321 322 324 323 322 319 320 321 315 315 318 316 319 317 312 318 317 318 318 318 320 320 320 319 319 319 319 315 313 315 315 316 315 313 316 320 321 322 321 320 320 321 322 323 324 323
318 318 319 319 319 319 319 320 320 320 321 320 320 320 319 319 319 319 320 320 322 322 322 326 326 322 323 321 314 310 316 326 333 336 333 331 329 326 324 325 323 322 321 321 323 323 321 321 321 322 321 318 320 316 317 318 315 320 318 318 317 318 319 320 318 319 319 318 319 314 315 315 318 318 308 317 318 322 321 320 321 320 320 321 323 324 325 324
318 318 318 319 319 319 319 319 320 320 320 320 319 318 318 318 318 319 319 320 321 322 322 326 326 323 325 318 311 310 320 325 331 333 331 328 325 323 324 324 324 323 322 322 322 325 324 325 325 324 321 316 320 317 319 317 321 319 319 318 317 318 318 319 318 318 319 316 321 318 314 317 317 316 311 316 319 322 320 320 321 322 321 322 324 324 326 326
317 318 318 318 319 318 318 319 320 320 320 319 318 317 317 317 317 318 319 320 321 321 324 326 319 328 322 316 313 313 322 324 330 331 329 326 324 324 324 325 324 324 323 321 322 325 326 326 325 322 316 322 315 319 318 322 320 318 318 312 314 316 315 317 315 317 319 314 321 321 314 313 313 311 316 318 320 320 320 320 321 322 323 323 324 325 325 325
317 317 318 318 318 318 318 319 320 319 319 317 316 316 316 317 317 318 319 320 321 322 324 325 323 329 321 312 315 320 323 326 328 327 327 327 328 328 326 324 324 324 324 323 322 325 328 327 326 319 321 319 317 314 320 323 319 320 319 314 313 313 311 316 318 317 317 317 320 319 303 306 311 315 318 319 318 319 318 318 319 321 322 323 324 324 325 327
317 317 317 318 317 317 318 319 319 318 317 316 315 316 317 317 317 318 319 320 322 324 325 322 329 325 322 312 318 321 323 325 327 326 326 327 326 325 324 324 324 325 326 325 325 329 328 329 326 323 324 319 316 324 320 319 319 314 316 318 311 308 306 315 317 316 314 318 319 319 304 305 311 316 319 320 319 317 316 318 319 320 322 323 324 324 325 327
316 316 317 317 317 317 318 318 318 317 317 316 315 316 316 316 317 318 319 321 322 326 323 323 330 325 319 315 320 327 348 328 323 323 328 324 325 324 324 325 325 325 326 326 327 329 329 327 324 320 317 323 322 319 314 315 317 315 311 306 308 306 306 313 318 316 313 316 320 316 305 306 311 315 320 319 320 317 316 318 319 320 322 323 324 324 324 325
316 316 316 316 316 316 317 317 316 316 315 314 314 317 317 317 319 320 320 324 324 322 327 329 325 320 312 310 316 331 330 318 318 322 326 327 327 325 327 327 327 326 326 326 330 329 328 326 321 320 318 319 318 314 313 311 310 312 310 304 304 306 306 309 314 317 317 316 318 315 307 309 310 317 320 319 319 317 316 317 319 321 323 323 323 324 325 325
315 315 315 315 316 316 316 316 316 315 314 314 313 319 320 320 322 323 323 322 325 327 329 320 320 321 308 317 321 316 316 318 321 321 323 327 328 328 327 326 324 324 326 327 328 327 325 321 322 320 320 315 318 316 308 306 304 307 311 305 306 304 305 304 312 316 317 317 311 315 312 310 312 316 318 320 319 318 317 317 318 319 321 322 323 323 324 325
315 315 315 315 315 316 316 316 316 314 313 313 313 318 323 320 320 321 322 325 327 324 324 324 323 316 311 317 311 314 318 318 319 320 322 327 330 328 326 324 324 324 324 322 325 321 322 318 319 315 316 316 315 313 307 299 304 304 305 303 303 306 308 306 308 311 315 315 313 312 311 310 312 315 317 319 320 318 317 318 319 319 320 321 322 323 324 324
314 314 314 314 315 315 315 315 315 313 312 313 314 317 319 318 324 329 322 321 316 314 307 311 311 305 304 312 316 316 317 319 321 320 320 325 329 329 328 327 325 321 318 317 317 320 320 318 317 314 310 311 311 313 308 308 309 308 308 306 305 304 304 305 309 313 314 312 311 310 310 310 311 313 316 318 320 319 318 319 319 319 320 321 322 322 323 324
314 313 314 314 314 314 314 314 314 312 311 317 324 325 325 324 318 314 319 317 312 311 312 314 314 314 313 314 314 319 321 321 316 319 323 328 326 325 324 324 321 321 317 314 316 318 319 312 310 310 311 313 313 314 313 312 311 310 309 307 305 304 305 308 310 313 315 312 309 309 309 309 310 312 314 317 319 320 319 319 320 320 319 319 320 321 323 324
313 313 314 314 314 313 313 313 312 311 311 320 323 322 312 312 307 305 315 315 316 315 313 312 313 312 312 315 317 317 313 315 318 317 321 328 325 322 319 320 317 315 316 316 315 320 318 311 311 312 312 313 313 314 314 313 311 310 309 308 305 306 303 307 308 312 315 312 306 310 308 309 310 312 314 316 317 316 317 318 318 319 320 320 321 321 322 325
313 313 314 314 313 313 312 312 311 311 310 325 322 315 314 314 317 318 316 310 314 316 315 315 317 314 317 317 319 319 317 312 314 317 323 325 322 316 318 316 314 312 316 315 316 313 311 311 312 313 315 314 314 314 313 312 312 310 309 308 307 306 308 309 310 312 314 312 306 308 307 308 310 312 314 315 315 317 318 318 318 319 319 320 321 322 324 325
313 313 313 313 313 312 311 310 310 307 323 323 316 314 312 318 323 325 320 315 311 317 315 315 313 313 314 319 319 319 311 310 310 315 319 322 319 316 317 313 313 313 315 313 310 311 308 312 313 315 315 313 313 313 312 312 312 310 309 307 305 307 307 303 308 311 313 311 308 309 308 309 310 312 313 315 316 317 318 318 319 320 320 320 321 322 323 324
312 312 312 313 312 311 309 309 307 320 323 320 316 314 318 321 323 323 317 311 308 313 315 316 316 315 315 314 320 317 312 312 313 312 322 320 315 317 315 314 312 312 311 312 310 309 309 311 315 314 314 313 311 312 311 311 309 310 310 310 307 305 307 309 307 311 312 313 312 310 309 309 310 308 309 314 316 316 317 318 319 321 321 322 324 324 325 325
312 312 312 312 312 309 309 307 321 320 321 320 317 319 321 322 323 324 317 314 311 309 319 316 317 316 317 322 321 314 315 315 315 317 321 319 316 315 313 317 314 310 311 313 312 310 310 315 315 313 313 313 312 311 310 311 308 309 309 310 309 308 308 307 309 309 307 306 310 309 299 301 309 309 310 313 314 315 317 317 317 319 321 321 323 324 326 327
311 311 312 312 311 309 308 319 320 319 319 317 319 320 323 323 324 325 317 306 299 307 309 304 318 311 322 314 318 315 315 309 317 318 321 320 323 315 316 312 314 308 310 311 311 312 311 314 314 312 312 311 311 311 311 311 309 307 307 311 311 311 309 308 307 308 304 301 307 310 300 296 307 308 311 312 312 313 316 317 317 318 319 320 321 322 324 325
311 311 311 311 311 309 312 314 317 319 317 315 320 324 323 323 329 324 307 301 295 306 305 311 311 312 317 316 316 316 302 307 315 319 318 322 317 321 311 310 314 313 313 314 309 307 312 312 313 313 312 310 309 309 311 311 310 307 311 312 312 309 309 309 309 308 306 307 309 310 308 303 301 306 310 312 311 312 314 315 317 317 319 320 321 322 324 324
310 311 311 311 310 309 313 315 316 314 316 321 322 322 322 325 327 324 307 289 289 308 304 308 311 316 315 315 317 310 311 312 308 312 319 321 320 316 311 310 310 310 313 310 302 310 313 310 311 311 312 310 310 309 313 313 310 309 311 312 311 310 310 310 310 309 308 307 304 306 308 303 301 306 311 311 309 310 312 313 315 317 317 319 321 321 322 323
310 310 310 310 309 309 315 316 314 313 321 322 322 321 322 327 324 313 302 288 305 304 313 306 316 313 311 314 312 313 311 312 307 311 316 319 320 315 309 311 312 311 314 311 307 309 312 313 313 313 312 310 312 313 313 313 311 312 314 314 312 312 311 311 309 308 307 304 301 303 306 301 300 306 308 310 309 308 311 313 314 316 317 318 319 321 322 323
309 309 310 309 311 318 319 321 315 319 321 321 322 323 324 323 316 301 291 285 310 299 307 308 307 306 311 307 308 311 309 310 311 312 315 313 315 315 313 317 312 310 309 312 309 310 311 317 318 314 311 313 313 314 315 314 313 315 313 311 310 310 310 310 310 309 305 296 300 303 304 304 296 304 306 308 308 311 312 314 315 316 318 318 321 321 322 322
308 308 309 309 310 313 314 312 320 321 321 322 323 323 324 318 305 294 286 297 305 306 307 306 304 309 306 305 304 309 309 310 309 312 309 313 311 312 312 309 314 309 309 309 308 310 311 312 311 314 317 316 316 312 315 315 315 313 311 309 308 307 309 307 306 307 298 295 302 305 305 304 296 300 307 311 312 312 313 312 314 315 316 318 321 320 321 322
308 307 308 311 314 316 310 307 315 322 322 323 323 320 314 299 303 292 290 306 295 304 304 304 306 306 306 307 306 307 305 308 310 309 307 308 308 306 307 305 307 302 301 303 303 309 307 308 313 314 318 315 313 313 312 313 313 312 310 308 303 297 302 294 301 293 295 295 303 306 306 303 301 305 308 310 311 313 314 315 315 316 317 319 319 321 321 322
307 307 307 312 313 316 317 318 322 324 324 323 321 316 305 298 288 297 298 301 299 306 304 308 305 305 305 305 304 307 309 304 309 308 309 309 307 308 310 309 310 307 299 304 303 303 305 310 310 311 313 316 315 308 307 307 310 310 308 306 301 294 292 289 294 297 297 301 306 306 306 301 304 307 311 310 313 315 316 318 318 318 320 320 320 321 322 323
306 307 315 317 317 318 321 324 324 324 322 325 320 307 302 292 292 308 301 302 303 307 307 306 307 307 306 302 304 307 303 307 307 307 308 306 306 306 307 309 309 307 306 306 301 303 298 299 305 309 306 315 314 312 311 309 309 309 312 307 304 301 295 288 294 289 293 297 302 306 303 297 299 302 312 314 315 316 317 317 319 321 321 324 321 321 323 325
306 311 322 324 323 323 322 323 325 325 323 321 311 303 292 292 299 299 300 302 304 306 304 308 304 304 303 304 306 307 307 304 307 306 305 304 304 305 305 306 309 308 308 301 304 304 301 302 308 312 313 315 311 314 315 311 310 312 312 310 305 303 307 297 300 300 299 298 298 301 298 305 305 311 314 316 315 315 316 317 318 318 319 320 321 322 323 326
310 318 321 321 320 322 325 325 326 324 324 316 307 298 295 299 296 302 301 307 307 303 305 306 305 302 303 303 306 305 307 304 306 306 305 305 306 305 308 308 307 309 306 301 306 300 302 302 309 310 312 313 312 315 314 314 301 308 308 304 307 311 307 300 302 304 303 297 294 299 304 306 310 310 312 313 313 314 315 315 315 317 318 320 320 320 321 323
313 317 309 313 318 320 327 327 324 324 323 313 305 297 303 303 305 303 306 305 306 306 305 299 302 301 301 301 303 304 305 305 305 304 302 306 304 306 306 308 310 309 309 308 306 308 302 302 308 308 307 312 316 316 315 314 314 310 304 308 311 313 310 304 296 296 295 293 292 301 298 300 302 297 310 311 311 313 313 314 315 317 319 318 319 320 320 322
312 314 315 317 314 320 327 326 324 323 318 309 300 303 309 302 306 304 308 306 307 306 303 302 304 304 302 302 302 304 305 302 303 303 302 305 301 310 306 306 310 309 310 311 305 307 307 300 305 307 309 311 315 314 311 313 314 310 308 315 305 300 300 305 298 291 291 289 293 298 299 300 302 303 307 307 310 311 312 314 314 315 316 317 319 320 322 325
315 313 304 316 317 320 325 326 323 319 313 304 303 299 306 308 309 306 309 309 307 304 302 303 302 305 304 302 304 304 305 300 304 302 300 304 300 306 306 308 307 310 310 311 307 309 308 299 302 307 308 311 312 310 301 307 312 313 313 309 312 307 305 302 302 301 302 291 292 294 299 296 304 306 308 308 311 312 312 313 313 314 316 317 318 319 320 325
307 302 302 315 317 321 324 325 321 315 309 300 304 305 309 305 307 308 309 307 305 304 303 303 304 303 304 305 305 304 304 304 304 303 302 305 302 308 306 309 307 309 310 311 308 311 308 311 296 303 309 310 304 308 305 307 305 307 307 305 307 307 309 307 307 302 299 293 293 292 292 301 306 310 310 310 311 313 313 313 314 315 317 318 319 320 321 322
311 303 302 313 317 321 324 322 314 307 305 307 308 306 306 305 307 307 307 309 307 309 304 303 304 302 304 303 304 305 304 305 304 303 303 304 304 301 308 308 308 307 309 309 308 310 302 305 297 303 303 303 305 310 310 309 309 307 306 305 306 304 301 297 294 305 302 299 293 294 292 303 306 312 312 312 313 314 314 314 315 315 317 319 320 324 326 324
304 294 298 312 319 321 315 308 309 312 308 304 304 306 305 310 306 307 308 309 308 306 310 305 305 303 303 303 304 303 303 303 304 304 304 302 306 305 308 310 309 310 307 305 306 310 313 309 304 299 302 304 306 308 311 311 312 310 309 307 308 308 306 302 293 298 302 302 302 301 296 300 311 313 315 314 313 314 315 315 315 316 318 320 323 329 330 332
302 298 309 314 319 318 311 304 308 308 306 307 311 308 310 308 307 309 307 309 307 309 308 306 304 303 305 303 303 303 304 301 303 303 305 306 306 307 309 309 310 309 309 308 308 311 312 306 302 302 305 307 308 309 309 309 310 308 309 310 308 305 306 305 303 305 300 301 299 298 293 299 311 316 317 317 316 317 317 316 316 316 318 323 326 326 327 329
301 303 304 312 320 319 306 296 297 301 306 309 309 308 311 310 309 308 307 309 308 308 307 307 307 307 304 307 306 302 306 299 305 305 305 307 306 309 308 308 309 308 307 309 306 312 300 306 302 299 298 301 303 306 306 308 308 306 306 308 308 308 308 308 307 309 297 301 300 298 292 298 311 316 315 315 316 315 316 317 320 317 322 323 323 326 328 331
304 308 308 310 318 317 303 308 305 304 305 306 306 305 307 308 310 310 310 309 311 310 308 308 309 309 307 309 307 307 307 304 305 308 307 307 307 309 308 308 309 309 309 311 327 313 305 304 302 295 292 290 290 291 295 300 303 307 308 308 308 307 307 306 298 302 295 301 302 298 299 306 311 314 313 314 314 314 317 318 320 319 321 321 322 326 327 328
300 290 301 304 310 312 310 311 309 305 305 305 304 306 306 304 309 311 310 309 310 310 311 310 311 311 308 307 306 305 305 308 305 305 306 306 308 308 311 309 307 308 316 325 318 313 308 309 306 303 301 298 301 302 307 307 306 302 305 306 306 307 308 308 306 301 297 303 301 303 303 304 307 310 311 313 314 314 316 318 318 319 323 326 327 325 327 328
304 298 298 295 304 306 305 307 305 306 301 306 298 305 304 305 306 307 311 307 310 309 309 309 309 307 308 306 306 306 307 306 308 307 306 307 308 309 311 312 312 310 321 313 318 312 310 304 307 305 304 304 305 305 307 306 304 305 304 304 306 306 307 307 303 298 306 302 296 304 307 304 306 309 310 313 314 315 317 317 318 320 322 322 325 326 327 326
295 302 302 305 296 294 297 299 303 303 305 306 304 307 304 303 305 304 310 311 311 312 307 308 309 308 307 305 306 301 306 306 307 305 308 309 309 312 310 313 312 315 315 309 313 311 307 299 305 307 305 306 306 307 307 306 306 306 306 306 305 306 307 306 307 306 307 300 297 306 307 306 307 309 312 313 315 316 316 318 320 322 322 323 323 323 323 325
302 302 301 304 297 300 299 300 302 302 302 304 303 305 304 303 302 304 306 308 309 308 309 297 305 307 307 308 307 306 306 302 302 308 308 307 308 309 309 310 313 317 311 311 311 318 313 303 310 307 306 306 305 305 306 305 305 305 305 306 306 306 306 306 307 307 307 306 307 308 308 307 309 311 312 315 318 318 319 322 322 321 320 321 321 321 321 322
297 296 295 301 300 298 300 301 300 299 298 302 298 302 301 301 301 302 305 307 306 308 309 305 304 307 308 307 308 306 305 306 305 304 309 308 306 311 311 312 311 315 313 312 310 318 310 304 308 307 305 304 305 306 306 306 305 304 305 306 306 306 306 307 307 310 311 308 309 309 309 308 313 320 319 324 324 323 323 319 318 320 320 320 320 321 322 322
301 302 303 296 294 296 299 300 298 297 295 299 299 298 298 299 300 303 304 310 308 305 304 302 304 306 308 308 308 306 308 307 306 307 308 308 303 310 308 313 312 313 312 310 311 317 311 305 310 308 299 302 305 304 305 306 305 304 305 305 305 305 305 307 305 311 309 307 309 311 306 306 313 319 320 321 321 318 318 318 319 320 320 321 320 321 323 324
303 305 305 301 293 297 294 298 297 296 290 299 299 297 296 298 300 303 301 308 308 309 307 304 304 305 307 307 306 307 309 309 309 310 311 311 312 311 312 311 311 310 310 312 314 310 308 308 304 302 297 298 306 306 305 304 304 301 304 306 306 307 308 309 309 310 311 311 310 302 305 312 321 319 317 318 318 317 318 318 321 320 321 321 321 322 322 324
Wind_Speed
21 20 18 18 18 18 17 17 16 16 16 16 16 16 15 14 12 11 10 9 8 8 7 6 6 5 5 4 4 4 4 7 6 8 10 17 7 12 9 11 13 14 12 10 9 8 5 7 8 8 6 6 4 4 4 3 2 4 5 3 3 3 2 6 4 4 5 7 9 8 7 5 7 6 5 5 5 5 5 5 5 5 7 6 5 3 4 6
22 21 21 19 17 18 17 17 17 16 17 16 16 16 15 14 13 11 10 9 9 8 8 7 5 5 4 5 5 5 6 8 9 11 15 2 11 11 10 13 15 17 15 9 9 7 5 7 8 11 6 4 4 2 5 3 4 5 3 4 4 5 7 3 6 5 3 8 9 8 6 3 4 7 6 4 6 6 6 5 5 6 6 5 5 4 4 6
24 23 23 23 22 23 20 17 16 16 17 17 16 15 16 15 13 12 11 10 9 8 8 7 6 4 5 3 5 6 6 9 8 10 5 1 10 12 11 15 16 15 13 8 6 5 5 2 7 6 2 2 4 4 5 4 5 1 5 3 6 5 7 5 3 5 3 9 10 8 6 4 6 3 5 3 5 4 4 5 6 5 7 6 5 4 4 5
24 24 24 23 22 21 22 19 16 16 16 18 17 16 15 15 13 12 11 10 9 8 7 8 6 5 2 3 4 5 7 7 5 7 5 8 8 13 13 14 14 15 9 7 5 5 4 5 5 5 2 2 4 2 4 5 5 3 5 4 6 4 5 6 4 5 6 7 8 7 6 6 4 4 2 3 5 4 3 3 1 5 6 6 5 5 4 3
24 23 24 24 23 22 21 20 17 16 16 17 18 16 15 14 13 12 11 10 9 8 7 7 6 4 3 3 6 6 5 6 7 2 7 7 7 12 13 13 14 12 9 5 5 5 5 5 4 2 4 3 4 4 3 3 3 3 6 6 5 4 7 5 6 6 7 6 7 7 6 6 6 4 3 2 5 5 3 5 2 5 6 6 6 6 4 5
23 23 23 24 23 22 21 20 18 16 17 16 18 17 15 13 13 12 12 11 9 8 8 8 6 3 1 5 6 6 5 2 3 2 6 4 7 13 13 13 13 10 8 8 7 6 6 5 6 4 2 2 1 1 6 4 0 2 5 6 4 5 8 6 7 7 6 7 7 6 6 6 4 5 3 1 5 5 5 4 5 7 7 6 6 5 4 4
22 23 23 23 23 23 22 21 22 22 18 17 16 16 15 13 13 13 12 11 10 8 8 8 6 5 2 4 6 7 7 4 1 6 10 6 8 14 14 12 11 10 10 9 7 7 6 4 4 3 3 2 4 5 4 3 2 2 7 6 7 7 9 7 9 7 6 7 6 6 6 5 6 5 2 2 4 5 5 4 6 7 6 7 6 5 4 3
22 23 23 23 24 23 23 22 21 21 18 16 15 14 15 14 13 13 12 11 9 8 7 7 6 3 3 5 6 5 5 6 7 5 9 8 10 12 14 13 13 11 10 8 6 5 3 4 2 3 0 1 5 5 7 8 6 7 8 7 9 8 8 8 7 6 6 7 6 7 6 5 1 5 5 5 4 5 6 5 7 7 7 6 5 5 4 3
22 22 23 23 23 23 22 23 24 21 19 17 15 15 14 14 14 12 12 10 9 8 8 6 5 2 2 5 7 10 6 6 5 7 9 9 11 13 15 10 11 11 8 5 4 2 6 4 2 4 6 5 5 7 6 4 7 6 9 8 9 9 9 8 8 7 7 5 6 6 6 4 4 4 3 6 5 5 6 6 7 7 7 7 6 5 5 4
22 22 23 23 23 24 23 23 25 24 20 18 16 16 16 15 14 13 11 10 9 7 7 7 4 4 5 6 9 6 6 4 5 6 7 8 11 12 9 6 12 9 7 5 4 4 3 3 3 5 9 7 2 5 2 2 8 8 9 9 10 10 8 7 7 7 5 6 4 5 5 6 5 6 6 5 7 7 7 7 7 8 8 7 6 5 5 4
23 23 23 23 23 24 25 23 23 22 20 19 19 17 16 15 13 11 11 9 8 7 5 3 3 5 5 5 8 3 3 4 4 5 8 9 11 10 6 9 10 8 5 5 4 2 3 4 6 5 5 6 5 7 5 10 10 11 11 11 9 8 7 7 6 6 6 6 4 2 5 5 5 4 4 9 9 8 8 8 8 8 7 7 6 5 5 4
22 22 23 23 24 25 25 24 23 22 20 20 19 18 16 14 12 11 10 7 6 6 5 6 7 4 6 7 7 5 4 2 4 5 7 10 8 3 1 7 8 4 5 6 5 3 3 6 7 5 5 7 8 11 10 10 9 11 11 10 10 9 8 6 7 6 3 5 5 2 3 6 6 3 8 10 10 9 8 8 8 8 6 6 6 5 4 4
22 22 23 23 23 25 25 23 24 21 21 21 20 18 15 13 11 9 7 7 7 7 6 6 7 4 6 9 4 5 2 2 3 5 7 7 3 2 3 5 5 2 2 3 7 6 5 6 4 5 8 3 6 2 8 7 8 6 4 7 9 7 7 6 4 5 4 6 5 3 4 6 8 6 7 10 10 10 9 9 9 7 7 6 6 5 4 4
22 22 24 24 24 25 26 24 22 22 23 21 19 16 13 10 8 6 5 6 2 4 6 7 6 5 5 8 3 4 1 2 5 7 8 7 6 5 6 5 4 3 1 4 8 6 7 4 3 8 3 5 7 12 11 7 6 4 5 5 4 6 6 8 5 6 5 6 5 6 2 6 8 7 8 9 11 11 10 9 9 8 7 6 6 5 4 4
25 25 25 25 24 25 24 24 21 23 22 19 18 16 10 4 4 5 3 4 2 6 6 6 5 4 5 4 4 5 5 3 5 3 8 10 8 9 8 7 7 5 4 7 8 7 5 7 8 6 5 5 11 9 8 6 4 5 5 5 4 3 7 8 5 6 4 5 5 3 4 5 7 8 8 9 10 11 9 9 9 8 8 6 5 6 5 4
23 24 25 24 24 24 25 22 23 22 22 20 17 12 7 4 6 6 5 3 7 7 6 5 5 5 9 7 6 3 5 3 5 2 4 8 6 4 8 8 8 8 7 8 6 5 6 6 1 5 8 8 8 5 5 6 4 5 4 4 4 4 8 8 7 6 4 4 5 6 3 5 7 6 8 8 11 11 10 9 8 9 8 7 6 5 4 4
25 24 25 24 24 25 27 24 23 22 21 18 14 5 7 7 9 9 10 10 5 5 4 3 2 2 6 5 1 6 5 4 1 2 2 4 4 10 9 8 7 9 9 10 8 8 8 5 5 5 4 0 5 4 5 3 4 4 3 4 3 5 7 6 7 6 7 5 4 6 4 4 6 6 8 9 9 11 9 9 9 8 7 7 6 6 5 4
24 25 25 24 25 23 26 26 24 23 20 18 10 7 2 5 11 13 6 6 3 3 3 2 4 5 10 6 8 3 3 3 3 3 1 3 7 10 8 7 8 11 11 10 8 7 6 4 7 2 6 8 7 6 4 2 3 4 4 6 7 5 1 7 6 8 8 7 4 5 4 2 5 7 7 8 9 10 9 8 8 8 8 7 6 6 5 4
22 24 24 24 24 24 25 26 24 24 18 17 8 3 4 4 6 7 4 5 5 4 5 7 6 9 5 6 4 2 1 4 5 4 5 9 8 6 7 7 10 10 8 3 8 5 6 3 5 4 5 5 6 5 2 4 3 4 2 3 5 4 6 4 8 6 7 7 6 5 3 5 6 6 7 8 9 9 8 7 6 7 6 6 6 5 5 4
23 24 24 25 25 25 24 25 25 25 18 10 4 5 5 4 4 4 6 6 10 10 7 2 8 6 7 8 3 3 2 3 5 4 7 7 8 9 9 9 8 5 7 5 7 7 5 6 5 4 3 4 5 5 2 3 2 2 2 3 3 3 7 6 4 6 5 4 4 4 3 3 6 7 7 7 8 8 8 8 7 7 7 7 7 6 5 5
23 23 25 26 27 26 25 23 25 25 20 7 6 6 3 7 5 2 5 8 11 11 11 11 9 10 10 5 2 5 4 4 4 4 7 8 8 10 8 8 7 6 5 2 2 6 6 6 4 4 2 2 5 5 5 4 2 2 2 3 5 4 7 5 5 5 5 7 7 2 4 5 4 7 8 8 8 9 9 9 8 8 7 6 6 5 5 4
22 24 24 27 27 26 25 25 24 22 21 8 4 6 5 8 5 5 5 5 7 9 11 12 6 10 9 10 5 2 3 6 8 8 6 10 10 11 9 8 7 5 6 3 3 5 5 6 1 1 1 0 1 6 6 5 3 4 5 4 4 4 6 5 4 4 5 5 4 4 4 6 7 7 8 9 8 8 8 8 8 8 8 7 7 6 5 5
21 24 25 26 26 27 27 24 24 17 7 4 5 6 6 6 7 3 5 7 12 8 9 10 10 13 12 4 5 6 9 9 7 9 10 11 10 11 6 8 6 4 4 6 5 4 5 4 2 3 2 4 6 6 7 6 5 4 4 6 3 6 6 7 6 6 6 5 1 4 5 3 6 7 8 8 9 8 8 8 8 7 7 7 7 6 6 7
22 22 25 26 29 27 30 25 25 10 5 5 4 7 2 5 6 2 6 5 6 4 8 8 10 11 11 8 7 10 10 6 7 8 11 11 9 6 8 9 8 6 7 7 8 7 7 5 3 4 5 6 6 7 7 6 5 5 3 2 4 6 3 5 7 6 5 6 5 6 7 7 6 9 8 9 8 8 8 9 8 7 7 6 4 4 6 6
22 21 24 28 27 27 31 25 4 6 9 3 2 4 3 5 5 5 5 5 6 7 5 4 4 7 4 4 7 9 8 6 9 1 11 12 8 6 7 3 6 7 7 6 7 7 6 3 4 6 7 6 5 6 7 5 4 4 6 4 2 1 2 4 6 8 6 6 7 1 5 3 5 5 6 8 9 10 9 10 11 10 9 8 8 7 6 6
22 21 21 26 27 26 33 7 6 10 11 1 4 3 5 6 5 3 5 4 6 5 4 8 7 5 8 8 8 8 2 10 6 7 10 9 7 7 5 7 5 6 3 4 5 5 2 3 7 8 7 7 4 3 5 6 2 4 7 4 5 4 3 4 6 6 4 1 6 5 3 3 4 6 6 6 8 10 10 11 11 10 10 9 9 8 7 7
22 20 20 22 22 23 12 3 10 14 6 5 2 5 6 7 3 5 4 3 7 6 10 5 7 4 4 9 11 8 10 7 6 6 10 8 11 3 10 5 6 4 1 2 4 4 3 7 8 7 8 6 6 3 5 6 4 2 6 4 5 6 5 5 5 4 3 2 3 4 4 5 5 6 3 4 7 7 8 10 11 10 10 10 9 8 7 7
23 21 20 20 21 14 7 9 11 8 6 4 5 6 8 5 2 3 4 2 2 4 7 6 1 3 5 6 11 13 1 8 9 7 6 7 8 7 9 6 7 6 7 5 5 8 7 7 8 9 7 6 6 11 6 7 4 6 4 3 5 6 5 5 4 3 1 3 5 4 2 4 3 6 4 4 7 8 7 7 9 10 9 9 10 9 8 8
23 23 19 20 23 22 6 6 7 8 4 7 7 8 5 3 6 4 3 4 2 2 4 5 1 6 5 6 11 13 7 4 6 7 5 5 7 4 9 11 8 4 7 8 6 6 3 3 6 5 2 4 3 3 2 8 7 7 4 3 2 2 4 4 5 4 3 6 3 3 1 5 5 3 5 5 3 3 4 5 5 4 7 9 10 9 9 8
24 23 20 18 18 4 3 5 8 9 8 7 9 9 6 4 5 6 2 6 3 4 4 4 7 9 11 10 10 12 13 6 1 5 9 7 10 6 2 5 5 6 7 8 10 3 5 2 4 5 6 3 5 5 1 6 3 6 6 7 6 6 5 5 5 3 4 3 3 3 1 5 1 2 2 2 2 2 3 4 4 5 5 7 7 9 9 9
24 24 21 15 7 6 6 7 2 2 5 7 9 9 4 5 6 4 5 1 2 4 3 5 7 4 14 15 10 12 13 9 8 9 7 6 9 9 5 5 5 6 6 6 8 6 6 5 6 4 2 5 6 8 5 2 5 7 6 5 7 5 4 6 5 4 4 2 4 2 1 2 3 4 2 4 4 3 3 4 5 6 7 7 8 8 9 9
25 25 25 13 7 5 5 5 8 6 6 9 8 4 6 7 5 6 3 5 8 4 4 4 6 8 12 14 12 12 12 11 9 11 9 9 8 9 10 8 7 7 8 7 5 6 8 7 5 6 5 7 9 6 6 5 5 6 4 5 3 2 4 2 4 3 1 2 6 4 1 4 3 2 3 3 4 5 4 3 6 6 7 7 8 8 8 8
27 25 27 11 6 6 10 11 9 7 8 8 5 4 7 7 6 10 8 2 1 4 5 4 3 8 8 12 13 10 10 12 12 12 12 9 10 11 11 11 8 8 4 5 5 7 4 6 7 7 6 9 9 7 6 5 7 6 6 2 1 2 2 2 2 2 3 4 4 2 2 3 3 3 3 4 4 4 5 3 3 5 5 6 8 8 7 8
27 26 12 5 6 7 7 8 7 6 8 5 5 5 8 6 7 1 8 8 2 1 3 0 2 4 7 10 13 12 9 11 8 10 11 8 10 10 10 9 7 8 9 2 6 6 6 7 9 10 7 12 11 7 5 3 8 6 3 2 1 1 2 1 1 1 3 3 4 4 5 1 2 5 3 5 6 5 5 5 6 5 5 5 5 6 7 7
31 21 9 7 5 8 10 8 6 4 5 6 6 8 7 8 8 5 5 7 6 3 6 2 6 5 10 12 3 10 10 10 13 10 12 11 10 11 10 10 13 10 6 8 5 4 7 3 6 11 3 13 12 7 3 1 5 3 2 2 4 1 1 1 2 3 2 3 4 6 1 2 3 5 4 4 5 5 6 7 7 8 6 6 6 5 6 6
19 7 7 2 4 6 6 4 3 5 5 6 8 7 10 8 6 4 2 4 3 6 5 5 6 8 7 10 10 10 8 7 13 11 11 13 12 12 12 9 11 13 8 7 3 6 4 5 8 8 4 7 9 6 7 5 4 6 5 5 1 3 3 0 2 1 3 4 3 1 4 4 5 6 7 7 7 7 7 8 8 8 7 6 4 5 6 6
9 10 3 4 6 10 7 3 3 5 6 8 10 8 8 9 7 4 2 4 6 7 6 8 7 8 8 9 10 14 9 9 8 11 10 11 11 11 9 10 7 13 14 9 6 5 4 4 6 8 9 3 1 7 4 6 3 5 5 4 4 0 5 3 1 2 3 2 3 2 1 3 4 4 6 8 8 9 9 9 8 7 7 7 6 6 6 6
10 7 6 2 8 9 6 3 4 5 7 9 10 11 4 9 3 7 3 7 6 2 6 7 1 4 5 6 8 12 12 11 11 11 11 12 7 11 15 11 12 12 13 13 9 6 7 6 6 3 2 8 6 6 6 4 4 6 4 6 7 4 7 5 2 2 1 3 1 5 1 2 2 7 7 8 8 8 9 8 8 8 8 7 6 6 6 7
9 6 2 5 8 9 6 3 6 6 8 10 10 8 9 10 1 3 2 4 4 7 6 5 7 2 6 7 1 4 10 12 11 11 12 10 11 11 11 10 12 15 15 13 11 4 6 6 6 4 5 7 8 8 6 7 7 5 3 5 1 5 4 2 1 4 5 3 1 3 2 6 1 6 3 7 7 8 8 8 7 8 8 6 6 7 8 8
7 5 1 6 10 10 6 4 7 6 9 10 10 11 1 5 5 6 6 5 6 5 5 7 4 6 5 6 4 4 6 11 8 10 13 8 12 9 10 11 10 13 14 14 10 6 6 2 3 6 4 7 7 8 8 7 7 7 7 6 5 4 3 5 2 4 3 1 2 1 2 5 6 4 3 6 6 7 7 7 7 6 6 6 4 4 5 7
4 4 1 10 12 11 5 4 7 8 9 8 8 8 3 7 2 4 3 4 7 5 9 6 6 6 5 5 8 3 4 6 7 8 8 9 10 8 10 10 9 7 6 8 12 7 4 8 6 6 7 7 7 8 7 7 9 7 7 6 5 5 6 5 2 2 2 3 2 2 2 4 5 3 3 6 5 6 6 7 6 6 6 5 4 4 4 5
6 6 3 13 12 12 7 6 7 6 7 9 7 9 5 2 7 8 6 4 6 6 5 6 8 9 10 10 9 4 6 6 6 8 8 10 12 13 6 15 11 10 9 9 11 10 5 6 8 6 9 7 4 5 1 4 5 5 7 6 7 5 5 5 3 5 2 1 3 3 3 6 4 4 4 4 5 5 5 4 4 4 3 4 4 5 5 4
5 7 11 10 10 10 6 8 7 7 9 7 5 5 4 5 4 1 5 4 7 5 6 7 7 7 9 10 11 10 8 8 7 8 8 12 11 15 5 8 9 12 11 7 8 4 2 7 9 9 8 5 4 5 4 5 8 9 9 7 6 7 7 6 3 0 2 2 3 3 2 4 6 5 5 6 5 4 4 4 3 3 4 4 5 5 6 6
6 7 5 5 11 5 4 5 5 7 9 7 5 7 2 5 3 4 6 3 4 3 5 4 4 7 8 3 6 8 5 6 8 11 9 8 8 4 4 7 11 9 10 7 8 11 6 8 10 8 6 7 7 6 6 5 7 8 8 9 10 7 7 2 1 1 4 4 4 4 1 4 7 6 6 8 9 8 8 6 3 6 5 4 5 5 5 5
7 5 5 6 7 5 4 3 5 7 5 6 6 6 6 7 5 7 5 5 3 6 5 6 5 3 5 3 7 8 8 10 6 6 8 3 5 4 1 7 13 10 12 6 3 11 10 7 10 8 8 7 8 8 9 10 10 8 8 6 10 11 10 7 5 5 6 3 6 4 1 6 8 7 9 9 10 9 7 7 5 5 7 7 6 6 6 5
4 3 4 3 6 2 5 3 3 7 5 6 6 4 4 6 6 4 4 5 5 6 5 7 8 7 6 6 9 10 12 12 11 4 7 7 7 4 2 2 7 12 4 8 7 10 5 6 11 12 11 9 9 10 4 6 8 11 12 12 11 12 11 9 4 4 6 4 6 7 5 1 8 9 9 10 10 9 10 8 8 8 8 8 7 7 6 6
4 3 4 4 6 2 4 2 6 6 3 6 3 3 2 4 6 4 3 7 4 4 3 2 6 3 3 5 6 9 10 10 12 14 12 10 6 4 4 4 6 10 5 5 8 8 5 8 13 17 17 11 5 2 5 8 8 12 11 12 12 12 12 11 9 7 4 3 6 5 4 6 3 7 8 10 9 9 9 9 8 9 9 8 9 8 8 8
2 3 4 4 4 4 4 1 8 6 7 6 6 4 4 3 4 3 3 0 4 6 4 5 6 7 7 5 5 4 5 7 10 8 6 3 6 7 7 8 8 9 10 9 11 9 9 6 13 14 16 5 0 1 4 7 10 8 10 10 12 13 12 13 13 11 7 6 3 3 4 6 5 3 7 9 10 9 10 10 9 9 9 10 10 9 9 8
2 4 1 6 4 3 4 8 8 7 7 6 4 4 2 2 3 7 6 5 3 3 5 1 7 9 8 7 2 3 7 4 3 7 6 9 10 9 5 6 5 7 11 8 10 3 5 9 9 14 11 9 4 5 5 9 7 9 10 10 11 13 15 15 14 12 12 9 5 3 6 7 6 1 5 7 9 9 10 10 10 11 10 10 9 9 8 8
3 4 2 5 6 6 4 4 5 6 5 5 3 7 5 6 6 9 7 5 4 2 6 2 8 9 8 7 5 2 6 6 6 8 8 12 14 5 5 5 3 5 7 8 9 4 7 2 7 11 9 9 7 5 7 10 10 11 9 9 11 12 13 14 11 6 6 7 5 4 6 8 2 6 7 6 7 9 11 12 12 10 10 10 9 8 8 7
3 2 3 5 5 2 3 3 4 4 4 2 2 6 6 8 7 9 8 6 5 3 6 8 9 10 6 6 4 2 7 11 11 12 14 13 11 10 7 1 8 5 5 7 7 6 7 1 4 9 7 7 8 9 10 9 10 11 10 11 10 12 12 10 7 8 9 9 7 5 7 7 4 6 7 8 9 12 14 13 11 10 10 10 9 9 9 7
3 1 3 4 4 2 5 3 5 4 3 3 3 6 5 7 8 10 6 4 7 6 8 9 8 8 6 5 5 9 14 15 16 17 16 15 15 16 14 16 14 9 6 6 6 8 10 6 6 8 9 6 8 8 10 10 10 10 11 11 12 12 10 9 9 7 10 7 6 5 8 1 3 7 8 9 11 13 13 13 12 11 11 10 10 10 9 8
Wind_Direction
351 352 347 348 349 351 349 346 344 343 342 340 335 331 330 328 327 328 329 324 321 321 319 314 306 297 267 255 233 219 201 235 225 223 225 248 265 129 121 112 141 153 170 185 149 178 160 151 176 184 183 206 142 199 117 179 219 225 250 291 265 10 15 38 25 40 141 130 135 156 162 163 148 151 131 163 131 105 123 95 93 93 66 65 79 86 108 156
348 347 347 344 345 347 346 344 343 340 339 337 334 330 326 324 325 324 324 324 322 318 320 313 307 293 272 237 224 212 226 239 253 249 243 163 126 155 138 145 148 161 183 185 183 204 201 186 175 185 190 162 188 105 194 120 248 270 284 256 8 31 58 14 49 76 143 125 134 156 167 167 129 152 151 192 134 135 125 115 132 110 110 110 114 117 165 176
347 346 346 345 346 348 346 343 340 338 336 334 332 329 325 322 321 323 320 320 317 319 313 311 306 299 260 243 213 212 248 243 250 249 229 242 167 160 155 155 162 170 192 214 203 234 268 160 168 196 269 171 193 143 223 128 246 63 293 307 71 49 77 55 59 75 44 127 142 152 160 181 125 158 145 200 137 174 137 138 165 151 139 142 131 146 157 194
349 347 345 345 344 344 346 341 336 335 333 331 331 329 324 321 319 318 317 314 313 315 315 303 306 294 262 214 205 218 241 266 222 106 89 94 171 170 162 158 163 180 211 228 202 207 201 170 174 239 149 238 115 163 207 117 251 101 259 27 78 109 114 78 84 100 118 132 135 141 148 150 141 131 193 128 173 139 108 101 149 144 143 137 136 127 138 152
349 347 347 345 344 342 341 337 334 332 331 328 329 326 325 320 316 314 313 310 310 313 312 306 300 295 244 221 189 217 266 274 92 91 57 30 138 169 163 157 163 189 209 184 182 187 184 165 182 176 212 136 126 186 76 119 350 94 48 59 84 115 88 90 86 109 113 124 129 134 158 120 129 148 139 149 309 83 89 123 108 129 135 140 140 135 131 119
347 346 345 344 343 341 338 336 331 329 330 328 325 323 320 317 313 312 309 308 309 312 309 305 301 297 269 189 220 221 241 63 60 96 50 65 121 157 162 158 177 200 188 176 186 175 189 172 200 175 155 184 143 174 86 73 259 111 97 82 65 55 94 96 108 115 136 129 129 140 103 129 154 110 84 316 26 75 67 92 132 132 135 131 133 143 142 130
346 345 344 343 340 339 337 332 334 334 330 325 320 316 314 312 313 308 307 306 305 309 306 301 297 278 245 198 233 246 267 66 198 83 65 83 120 144 153 157 178 188 184 178 187 187 197 166 234 103 118 103 93 87 107 138 186 43 98 96 85 93 95 106 105 134 122 127 110 103 151 132 140 128 133 87 84 87 100 119 133 130 138 145 153 160 144 135
345 344 343 342 340 336 334 334 334 332 324 322 316 309 309 310 308 307 304 302 302 300 302 293 290 278 244 233 244 242 217 64 69 79 92 111 124 138 151 162 176 178 183 195 182 201 181 191 148 162 234 37 105 130 119 109 94 111 106 102 97 97 102 108 117 118 117 108 123 143 138 110 11 97 175 99 108 119 125 139 143 144 158 171 167 161 157 161
344 341 341 341 339 336 333 331 333 328 324 320 317 315 307 307 304 300 300 299 298 297 289 287 281 281 245 275 287 293 94 65 50 123 137 141 137 153 161 154 182 179 192 204 209 173 221 91 155 285 108 130 132 115 165 143 98 89 108 119 115 106 112 115 121 123 126 127 143 145 111 122 119 153 126 110 116 122 138 151 158 164 176 182 183 175 188 175
342 340 340 340 339 336 333 330 330 331 322 320 321 314 310 302 299 295 292 292 291 289 279 275 242 230 250 270 302 278 77 107 123 142 158 150 149 162 198 165 176 186 196 190 200 194 271 93 50 130 99 89 160 89 136 277 97 115 117 113 115 115 121 133 126 132 141 129 160 140 141 134 146 237 121 147 138 142 159 158 166 179 180 186 186 181 197 201
341 339 339 339 338 336 332 328 327 326 321 321 319 314 305 299 291 287 287 287 284 277 270 242 227 238 268 285 302 13 119 158 124 152 164 165 166 187 192 169 181 188 196 165 195 209 79 126 130 131 177 96 130 110 84 89 128 121 117 119 119 128 118 128 132 140 159 139 187 198 140 142 154 230 89 148 153 169 167 169 176 196 186 184 190 198 191 206
341 338 338 338 337 335 331 328 326 325 320 322 319 313 304 293 285 276 274 279 274 261 256 220 206 256 272 273 274 359 138 88 147 156 171 174 189 252 227 176 190 199 189 173 170 133 159 123 159 220 99 171 98 113 104 133 131 137 142 126 126 136 133 153 145 147 217 131 178 227 163 174 172 162 115 146 160 177 183 177 186 200 201 189 188 204 204 206
341 338 338 336 336 334 330 327 329 325 326 326 322 316 303 289 276 267 265 262 248 249 232 188 221 260 286 282 52 45 136 117 154 165 170 190 157 155 172 166 183 220 271 201 150 151 148 152 195 115 117 150 149 39 125 162 125 154 168 127 146 153 136 149 145 153 193 105 192 123 185 117 148 124 145 151 169 183 190 193 190 200 205 201 202 205 206 195
341 339 336 336 336 333 330 329 329 329 330 329 325 322 314 293 265 256 238 256 331 209 186 200 252 252 266 279 337 92 86 154 148 175 184 176 164 110 137 142 141 156 174 109 127 146 146 169 105 88 108 131 118 130 148 134 181 152 133 210 158 167 123 149 185 158 183 122 202 139 284 116 114 154 155 169 174 190 198 197 197 203 206 207 207 215 209 198
340 339 336 335 335 333 329 328 332 332 331 331 328 330 325 306 236 208 196 182 238 157 176 214 239 251 237 302 102 87 100 243 186 153 179 184 166 135 122 142 130 129 128 129 133 146 145 125 139 167 107 97 135 163 144 153 166 153 187 158 160 166 124 154 183 181 179 151 208 221 241 92 123 140 170 166 181 195 211 199 202 206 210 210 212 212 217 206
342 338 335 334 333 332 329 327 333 333 332 333 330 338 4 73 112 135 176 88 130 157 195 229 200 257 293 270 101 136 217 180 55 84 157 203 205 109 119 112 118 122 142 130 137 148 153 149 113 86 120 152 173 160 154 158 171 182 222 127 124 128 125 148 177 184 209 141 187 228 17 162 121 134 167 172 187 198 210 208 207 209 214 214 218 219 224 212
343 338 335 334 333 333 332 328 331 335 333 333 327 357 29 89 104 109 108 132 151 202 242 294 141 227 275 68 267 228 154 68 337 158 177 210 208 135 136 135 122 118 127 136 142 149 140 160 132 165 128 14 243 184 184 195 174 161 221 127 125 125 153 124 142 193 171 215 170 191 243 65 98 138 164 177 196 203 214 210 206 212 212 214 216 217 210 222
343 338 335 334 333 333 333 331 328 334 332 329 320 335 74 98 135 133 155 198 152 208 233 261 267 266 230 222 239 140 39 301 346 5 136 192 177 158 149 131 124 130 136 130 156 164 165 156 196 185 170 188 220 210 246 136 146 162 159 136 151 144 274 119 167 146 191 187 225 158 240 179 150 151 168 185 197 208 215 215 206 207 206 211 214 212 218 228
342 340 335 334 333 333 334 332 329 329 334 314 283 256 168 214 237 265 157 157 176 177 216 181 194 216 71 138 63 259 268 358 295 247 170 169 177 164 152 144 147 151 147 172 162 182 188 176 213 215 212 194 200 229 78 93 96 118 151 130 131 146 143 135 107 144 193 171 209 182 203 155 157 154 171 181 195 210 215 216 219 215 212 208 212 217 209 211
342 342 337 334 334 331 334 332 328 325 333 320 210 221 216 204 177 173 186 206 235 252 312 10 205 283 295 241 221 61 263 229 254 145 144 150 169 168 158 164 167 206 138 201 148 199 179 213 207 217 216 191 193 215 132 116 43 102 206 189 119 135 118 119 143 136 193 217 199 162 180 150 144 144 151 172 182 204 213 215 214 216 210 207 202 198 196 200
341 339 339 334 332 331 330 331 327 321 319 293 275 274 15 5 291 154 348 265 243 245 262 259 259 270 272 346 293 306 305 222 259 181 182 170 190 175 161 190 182 214 206 51 131 108 229 243 235 270 278 212 199 175 179 202 220 261 162 212 151 206 129 128 123 158 160 252 124 175 162 159 162 147 151 163 183 190 201 200 202 200 193 202 203 205 197 176
339 340 337 335 331 330 327 328 325 317 303 264 319 51 62 31 348 328 283 268 204 230 237 249 267 264 256 260 274 285 224 275 234 178 142 193 179 222 153 224 197 244 118 163 184 188 196 245 268 239 52 237 200 174 197 211 203 203 224 160 192 152 105 140 154 153 169 245 132 159 213 174 173 180 167 178 190 179 188 189 187 194 193 195 197 194 194 187
338 337 338 336 332 328 326 322 322 310 310 357 43 43 43 351 343 307 251 276 277 230 225 225 227 241 248 215 206 179 241 239 258 161 170 198 183 236 153 218 204 222 172 206 245 210 231 144 42 101 169 181 181 193 193 211 217 213 178 195 161 118 196 155 166 183 176 233 43 173 245 189 172 173 181 191 189 189 188 195 197 188 194 201 192 182 188 193
337 337 336 337 333 329 320 325 307 284 342 327 52 59 29 347 329 298 235 263 303 202 218 218 233 242 242 241 159 202 226 231 232 217 153 189 209 184 223 227 236 224 230 210 249 282 332 32 77 160 168 181 177 182 193 209 192 182 247 268 113 160 189 335 131 176 189 215 248 256 247 203 176 179 184 182 197 201 189 203 211 204 200 195 200 198 189 196
333 335 337 335 336 328 318 320 291 354 329 234 121 76 5 336 331 270 259 259 218 233 117 228 202 238 206 73 159 213 215 241 239 114 167 198 175 171 231 227 257 229 245 226 241 261 241 123 140 166 183 187 165 186 207 214 209 154 186 227 352 96 161 149 139 173 195 198 196 243 18 161 146 184 184 162 187 207 202 209 209 205 203 195 201 203 199 204
331 332 337 336 334 333 310 301 32 336 318 73 64 18 344 330 333 245 264 271 267 164 138 208 154 191 155 185 166 211 154 243 203 200 171 208 190 251 118 223 218 268 237 205 258 276 63 163 185 186 179 191 193 238 174 226 224 235 109 215 206 216 211 181 169 219 221 154 123 159 175 125 195 164 162 185 201 204 198 214 219 210 205 202 203 200 190 194
330 330 333 336 334 341 336 26 339 311 284 111 60 347 333 328 314 193 251 206 265 155 201 70 199 151 239 153 176 158 219 180 116 137 182 182 201 170 237 180 185 229 285 317 250 184 202 169 185 189 201 144 214 236 172 219 260 125 92 190 201 192 203 200 209 253 4 47 117 244 261 308 133 120 122 184 225 220 209 208 219 220 212 205 201 202 180 185
327 327 330 334 329 329 267 303 311 319 355 25 341 327 326 334 202 214 257 264 238 113 200 159 240 67 242 161 185 199 46 99 181 162 203 174 213 168 237 232 215 209 178 210 257 109 199 163 188 189 199 197 153 222 166 189 240 68 139 173 181 202 195 198 222 231 134 260 179 163 199 236 111 109 133 187 203 206 205 210 204 203 209 210 204 198 184 182
327 326 329 331 326 304 267 234 297 283 350 337 320 317 318 300 227 263 272 251 108 197 24 190 109 193 156 161 198 218 224 204 280 112 159 173 212 302 217 232 236 255 182 233 274 126 148 235 198 199 211 206 99 89 174 191 224 117 134 170 144 193 200 204 221 202 182 243 141 130 164 284 95 98 154 148 258 174 187 178 179 155 188 199 196 192 186 174
327 324 326 336 323 224 215 225 241 263 307 320 312 305 294 227 211 223 172 244 109 185 174 64 211 177 176 180 197 199 220 192 189 127 166 188 180 223 337 343 237 217 216 217 255 341 80 110 336 242 202 17 104 87 150 172 35 134 170 175 170 181 187 194 229 237 206 240 92 110 162 313 97 120 100 188 86 51 134 166 145 145 146 172 175 183 180 178
325 322 320 334 306 329 317 267 207 305 315 313 311 293 249 211 236 230 207 266 286 98 170 169 176 157 186 198 198 188 218 201 174 166 159 185 170 214 173 182 215 231 231 225 230 200 199 156 197 183 74 112 133 122 117 107 169 179 188 169 160 148 170 189 184 209 235 153 119 121 155 264 293 111 161 94 141 184 212 140 157 148 148 151 164 178 178 178
324 319 315 322 265 290 258 300 348 322 324 316 302 263 215 208 212 219 217 99 259 115 235 142 174 200 199 204 225 177 199 194 197 201 205 187 184 199 191 227 178 204 213 207 197 179 203 212 142 137 183 174 161 150 150 166 172 224 212 202 231 128 200 153 187 186 162 116 114 126 192 221 209 35 64 121 172 159 193 179 149 164 131 147 161 164 174 171
322 317 310 287 232 215 241 266 297 307 309 297 281 231 212 221 223 222 249 225 142 339 108 296 138 201 207 203 215 200 191 214 177 215 221 194 222 201 203 227 195 226 228 184 195 193 173 132 174 157 174 209 205 194 144 192 194 224 210 199 163 155 158 108 77 88 129 116 112 161 166 276 39 114 114 151 127 118 145 159 130 125 119 139 148 160 161 172
318 316 308 299 268 248 268 278 283 296 298 272 247 205 234 226 230 7 259 237 14 167 319 235 217 209 215 210 203 192 194 215 178 199 202 197 219 219 185 209 220 209 247 215 232 209 187 191 196 166 198 180 211 235 165 207 170 199 274 229 43 312 11 96 128 82 79 89 124 125 228 104 181 75 131 108 118 138 149 157 144 143 141 137 146 151 153 159
314 298 274 290 242 236 239 260 275 269 264 258 227 224 209 222 242 239 221 241 244 277 268 150 266 220 199 227 182 206 235 187 203 197 204 218 208 222 207 197 198 237 230 245 169 258 235 243 152 180 44 167 201 207 239 141 165 154 208 281 238 182 248 358 25 343 46 135 168 165 284 59 67 127 123 142 161 156 160 154 161 158 161 148 157 160 161 164
306 327 301 253 309 350 318 282 243 222 234 228 233 220 222 209 234 199 258 334 308 288 306 257 249 230 213 207 195 217 155 271 173 212 213 215 216 217 212 211 196 196 212 228 178 224 199 210 131 146 167 195 201 172 208 230 247 154 199 211 59 33 284 185 202 272 342 276 77 184 215 183 130 178 171 174 183 168 174 166 176 168 159 165 172 163 179 176
334 321 328 347 348 348 340 290 217 216 224 239 232 232 225 229 251 274 26 312 6 329 283 262 195 227 209 205 201 198 179 218 194 207 211 202 221 229 216 219 221 196 222 238 210 231 259 159 145 174 181 149 323 203 181 211 308 148 229 125 95 338 312 276 305 159 230 115 84 250 22 122 201 120 147 173 189 169 186 176 182 162 163 182 174 184 180 177
319 309 269 282 11 349 351 323 236 228 230 223 233 247 224 246 145 268 333 289 262 244 294 256 312 260 237 239 196 193 168 208 176 200 230 171 240 189 216 228 202 223 216 218 257 177 217 210 155 201 150 143 167 169 176 192 259 277 355 88 238 171 195 170 263 265 71 55 109 100 152 91 345 116 168 163 184 170 183 178 173 175 182 189 176 179 165 162
290 287 258 75 2 359 346 293 268 248 216 223 230 223 227 243 228 247 306 298 275 287 285 266 293 181 289 233 239 155 176 210 181 204 223 166 226 151 224 216 205 212 220 219 223 179 201 239 150 164 199 155 183 197 217 184 184 237 255 228 214 283 328 199 9 355 292 117 241 87 208 87 166 69 143 137 169 168 177 176 189 181 178 186 186 176 175 175
335 297 73 32 2 354 342 270 273 235 228 226 223 235 177 227 229 236 239 245 254 246 234 285 263 292 250 271 302 226 169 244 200 211 218 144 224 135 223 189 236 199 212 210 232 178 204 243 235 127 146 162 199 199 220 197 191 187 209 216 187 245 34 315 279 282 343 6 55 346 87 94 82 89 121 121 146 162 168 181 180 194 173 184 180 173 183 172
300 268 11 19 356 340 313 247 244 218 224 233 251 254 187 245 215 208 194 204 267 236 276 272 289 260 302 301 224 208 249 211 219 232 212 208 213 210 200 206 204 173 164 198 222 186 210 196 237 156 183 199 213 195 237 230 203 203 203 211 224 196 204 219 159 185 231 290 36 291 77 83 90 135 136 127 149 153 175 161 178 186 176 173 174 166 170 165
319 298 36 356 347 339 323 262 234 247 254 231 233 226 226 62 252 254 249 200 248 267 179 268 261 270 272 264 284 295 275 267 232 233 212 240 194 240 166 195 199 168 181 186 212 188 233 209 231 208 219 219 139 87 275 286 285 256 246 221 218 208 238 243 233 131 210 70 314 346 280 98 99 136 128 126 151 149 156 176 173 175 182 168 162 148 135 120
334 289 318 308 344 333 299 267 253 235 238 245 351 276 252 236 263 104 255 197 253 229 262 240 257 264 246 257 266 267 264 258 252 233 225 217 233 217 154 196 188 192 209 200 192 109 67 210 219 231 230 115 128 116 121 209 226 232 232 248 228 219 222 227 264 82 273 156 223 183 227 106 129 139 147 153 149 140 150 181 178 141 133 143 142 141 150 149
315 304 317 351 329 323 263 252 251 237 239 237 273 281 276 291 255 235 236 234 267 243 253 271 262 225 272 290 289 270 255 254 232 245 233 218 226 65 127 188 178 205 212 159 218 146 202 206 236 222 213 204 183 182 188 167 209 228 229 206 226 235 223 244 273 168 262 227 275 293 306 110 135 156 160 171 169 172 165 154 164 131 131 128 127 119 119 127
291 260 242 303 358 348 263 6 312 289 264 300 289 272 268 241 226 257 287 282 302 277 292 262 261 324 267 288 273 274 266 258 281 241 277 260 240 107 154 230 199 224 211 191 219 155 220 186 203 220 214 206 206 204 210 198 204 212 233 213 211 219 198 190 215 196 253 193 241 248 244 95 122 165 169 179 175 171 149 150 152 127 129 134 127 125 124 132
5 325 343 336 2 35 103 15 333 323 299 321 285 256 303 278 258 227 276 255 273 305 289 293 295 279 276 283 261 248 246 237 242 251 223 220 212 143 78 239 231 233 215 98 158 168 234 205 212 224 225 221 217 217 193 231 175 208 202 215 208 215 210 214 244 234 240 181 235 232 265 178 154 174 179 178 185 168 157 155 157 136 126 120 125 129 127 125
305 307 355 343 327 80 350 41 6 343 325 327 275 341 306 341 311 240 70 242 110 348 315 27 14 352 356 313 286 278 263 261 233 243 255 270 289 331 181 233 222 230 99 182 183 203 213 222 213 223 233 233 299 46 146 205 198 212 216 209 209 207 206 211 215 228 229 213 239 211 262 267 235 169 168 182 187 172 164 164 153 139 141 137 123 119 126 128
283 61 19 22 313 323 340 16 353 333 323 289 263 300 284 303 16 353 340 233 0 41 2 163 44 23 358 334 306 272 299 296 255 252 277 328 324 336 279 187 226 176 175 212 195 201 212 225 209 219 229 252 55 161 185 223 242 243 223 210 205 200 201 212 218 226 209 234 271 116 209 234 248 210 156 182 187 174 170 164 152 143 137 133 139 141 137 131
320 343 316 355 284 355 334 327 324 320 311 316 284 277 280 323 3 6 330 322 285 54 30 1 11 8 357 5 309 284 13 283 282 360 360 345 340 329 287 188 177 163 187 194 191 202 228 227 188 207 216 222 198 212 193 236 220 234 238 223 213 202 204 213 220 221 219 229 262 238 223 235 240 198 165 169 175 172 152 143 144 153 151 145 147 144 137 139
34 345 342 341 296 292 309 314 313 304 290 327 271 23 351 12 3 350 341 313 302 25 2 37 6 350 351 348 356 57 48 14 338 312 324 329 323 292 282 318 13 184 193 194 187 181 226 167 163 189 205 203 188 179 202 226 227 229 217 227 220 212 215 216 223 212 237 248 231 241 243 245 224 91 110 114 142 140 143 156 163 158 154 153 148 144 142 138
354 332 318 320 307 336 313 280 300 306 292 313 348 12 348 10 352 345 324 303 289 354 23 356 346 331 333 334 307 242 4 335 316 299 297 292 279 289 316 336 1 355 250 195 202 154 213 206 207 191 210 192 179 198 194 209 223 234 209 206 200 203 210 198 217 204 209 219 209 204 236 244 175 133 127 147 162 164 162 162 162 161 156 153 156 144 138 138
299 216 246 282 285 318 288 307 274 270 248 56 29 1 341 340 351 345 339 47 44 55 15 355 339 327 302 314 318 337 330 317 306 298 288 283 271 270 262 265 277 284 308 261 206 208 195 184 182 193 211 201 167 192 192 201 216 225 224 209 204 201 206 202 212 206 219 220 207 207 238 337 131 152 154 162 176 172 169 166 162 163 156 155 153 149 141 138